BEIDOU-3 IGSO-1 (44204 NORAD) Tracking and Keplerian Element Data

This shows tracking and keplerian element data for the satellite.

Feedback or suggestion? Click here.




ElementValue
Catalog44204
NameBEIDOU-3 IGSO-1
Epoch Orbit221
Epoch Day34.56561749
Epoch Year2025
RAAN42.8037
Inclination57.9842
Eccentricity0.0023149
Argument of Perigee226.2409
Mean Anonmoly187.7176
Mean Motion1.00284614
Decay Rate-2E-06
L11 44204U 19023A 25034.56561749 -.00000200 00000+0 00000+0 0 9997
L22 44204 57.9842 42.8037 0023149 226.2409 187.7176 1.00284614 2217



Live tracking and technical data element details for BEIDOU-3 IGSO-1 (NORAD 44204). BEIDOU-3 IGSO-1 can be tracked NOW for your location showing map with azimuth and elevation plus other details from your city location.







IsCatalogInMostPopularTable: catalog: 44204, numindb: 286
Update: records affected: 1



GetName: 44204 BEIDOU-3 IGSO-1

Hit Count: updated at: Fri, 16 May 2025 11:17:26 GMT